Location: Blangy-Tronville
(49.8790°N, 2.4226°E)
Time: 07:18:32
(UTC+00:00)

Meteor 2-12 Rocket - Pass Details

Date: 18 November 2025
Orbit: 935 x 957 km, 82.5° (Epoch: 06 December)

Event Time Altitude Azimuth Distance (km) Brightness Sun altitude
Rises 17:00:23 0° 351° (N) 3,628 7.4 -9.3°
Reaches altitude 10° 17:02:55 10° 354° (N) 2,675 6.7 -9.7°
Maximum altitude 17:09:01 68° 77° (ENE) 1,012 4.4 -10.6°
Drops below altitude 10° 17:15:01 10° 161° (SSE) 2,644 6.8 -11.5°
Sets 17:17:30 0° 164° (SSE) 3,582 7.5 -11.9°
